Weather History for Puyallup, WA

Change the Weather History Date:

Thursday, April 3, 2014

  Actual Average (KTCM) Record (KTCM)
Temperature  
Mean Temperature 47 °F -  
Max Temperature 57 °F 52 °F 75 °F (2004)
Min Temperature 37 °F 34 °F 24 °F (2007)
Degree Days  
Heating Degree Days 18    
Moisture  
Dew Point 39 °F    
Average Humidity 83    
Maximum Humidity 100    
Minimum Humidity 38    
Precipitation  
Precipitation 0.02 in - - ()
Sea Level Pressure  
Sea Level Pressure 29.95 in    
Wind  
Wind Speed 2 mph (SSW)    
Max Wind Speed 13 mph    
Max Gust Speed 24 mph    
Visibility 10 miles    
Events Rain    
Averages and records for this station are not official NWS values.
T = Trace of Precipitation, MM = Missing Value Source: NWS Daily Summary

Daily Weather History Graph

Daily Weather History Graph

Search for Another Location

Airport:

Trip Planner

Search our weather history database for the weather conditions in past years. The results will help you decide how hot, cold, wet, or windy it might be!

Date:

Astronomy

Apr. 03, 2014 Rise Set
Actual Time 6:44 AM PDT 7:41 PM PDT
Civil Twilight 6:13 AM PDT 8:12 PM PDT
Nautical Twilight 5:35 AM PDT 8:49 PM PDT
Astronomical Twilight 4:56 AM PDT 9:29 PM PDT
Moon 9:04 AM PDT (4/3) No Moon Set
Length of Visible Light 13h 59m
Length of Day
12h 57m
Waxing Crescent, 18% of the Moon is Illuminated
Apr 3
Waxing Crescent
Apr 7
First Quarter
Apr 15
Full
Apr 22
Last Quarter
Apr 28
New

Hourly Weather History & Observations

Time (PDT) Temp. Windchill Dew Point Humidity Pressure Visibility Wind Dir Wind Speed Gust Speed Precip Events Conditions
12:15 AM 41.0 °F - 41.0 °F 100% 30.02 in 10.0 mi Calm Calm - N/A   Unknown
12:35 AM 41.0 °F - 39.2 °F 93% 30.01 in 10.0 mi Calm Calm - N/A   Unknown
12:55 AM 39.2 °F - 39.2 °F 100% 30.01 in 10.0 mi Calm Calm - N/A   Unknown
1:15 AM 39.2 °F - 39.2 °F 100% 30.01 in 10.0 mi Calm Calm - N/A   Unknown
1:35 AM 37.4 °F - 37.4 °F 100% 30.00 in 10.0 mi Calm Calm - N/A   Unknown
1:55 AM 37.4 °F - 37.4 °F 100% 30.00 in 10.0 mi Calm Calm - N/A   Unknown
2:15 AM 39.2 °F - 39.2 °F 100% 30.00 in 10.0 mi Calm Calm - N/A   Unknown
2:35 AM 37.4 °F - 37.4 °F 100% 29.99 in 10.0 mi Calm Calm - N/A   Unknown
2:55 AM 37.4 °F - 37.4 °F 100% 29.99 in 10.0 mi Calm Calm - N/A   Unknown
3:15 AM 37.4 °F - 37.4 °F 100% 29.98 in 10.0 mi Calm Calm - N/A   Unknown
3:35 AM 37.4 °F - 37.4 °F 100% 29.98 in 10.0 mi Calm Calm - N/A   Unknown
3:55 AM 37.4 °F - 37.4 °F 100% 29.98 in 10.0 mi Calm Calm - N/A   Unknown
4:15 AM 37.4 °F - 37.4 °F 100% 29.98 in 10.0 mi Calm Calm - N/A   Unknown
4:35 AM 37.4 °F - 37.4 °F 100% 29.98 in 10.0 mi Calm Calm - N/A   Unknown
4:55 AM 37.4 °F - 37.4 °F 100% 29.98 in 10.0 mi Calm Calm - N/A   Unknown
5:15 AM 37.4 °F - 37.4 °F 100% 29.97 in 10.0 mi Calm Calm - N/A   Unknown
5:35 AM 37.4 °F - 37.4 °F 100% 29.97 in 10.0 mi Calm Calm - N/A   Unknown
5:55 AM 37.4 °F - 37.4 °F 100% 29.97 in 10.0 mi Calm Calm - N/A   Unknown
6:15 AM 37.4 °F - 37.4 °F 100% 29.97 in 10.0 mi Calm Calm - N/A   Unknown
6:35 AM 37.4 °F - 37.4 °F 100% 29.97 in 10.0 mi Calm Calm - N/A   Unknown
6:55 AM 37.4 °F - 37.4 °F 100% 29.97 in 10.0 mi Calm Calm - N/A   Unknown
7:15 AM 37.4 °F - 37.4 °F 100% 29.97 in 10.0 mi Calm Calm - N/A   Unknown
7:35 AM 37.4 °F - 37.4 °F 100% 29.97 in 10.0 mi Calm Calm - N/A   Unknown
7:55 AM 39.2 °F - 39.2 °F 100% 29.97 in 10.0 mi Calm Calm - N/A   Unknown
8:15 AM 41.0 °F - 41.0 °F 100% 29.97 in 10.0 mi Calm Calm - N/A   Unknown
8:35 AM 41.0 °F - 41.0 °F 100% 29.97 in 10.0 mi Calm Calm - N/A   Unknown
8:55 AM 44.6 °F - 41.0 °F 87% 29.97 in 10.0 mi Calm Calm - N/A   Unknown
9:15 AM 44.6 °F - 41.0 °F 87% 29.97 in 10.0 mi Calm Calm - N/A   Unknown
9:35 AM 46.4 °F - 39.2 °F 76% 29.96 in 10.0 mi Calm Calm - N/A   Unknown
9:55 AM 46.4 °F - 41.0 °F 81% 29.96 in 10.0 mi Calm Calm - N/A   Unknown
10:15 AM 48.2 °F - 41.0 °F 76% 29.96 in 10.0 mi NNE 3.5 mph - N/A   Unknown
10:35 AM 48.2 °F - 41.0 °F 76% 29.95 in 10.0 mi Calm Calm - N/A   Unknown
11:15 AM 51.8 °F - 41.0 °F 67% 29.94 in 10.0 mi Calm Calm - N/A   Unknown
11:35 AM 51.8 °F - 41.0 °F 67% 29.94 in 10.0 mi Calm Calm - N/A   Unknown
11:55 AM 53.6 °F - 39.2 °F 58% 29.93 in 10.0 mi Calm Calm - N/A   Unknown
12:15 PM 55.4 °F - 37.4 °F 51% 29.93 in 10.0 mi SSW 6.9 mph - N/A   Unknown
12:35 PM 57.2 °F - 33.8 °F 41% 29.92 in 10.0 mi SW 10.4 mph 16.1 mph N/A   Unknown
12:55 PM 57.2 °F - 32.0 °F 38% 29.92 in 10.0 mi South 11.5 mph 18.4 mph N/A   Unknown
1:15 PM 57.2 °F - 32.0 °F 38% 29.92 in 10.0 mi SSW 8.1 mph - N/A   Unknown
1:35 PM 57.2 °F - 32.0 °F 38% 29.91 in 10.0 mi South 10.4 mph 17.3 mph N/A   Unknown
1:55 PM 57.2 °F - 32.0 °F 38% 29.92 in 10.0 mi SW 8.1 mph 19.6 mph N/A   Unknown
2:15 PM 55.4 °F - 37.4 °F 51% 29.92 in 9.0 mi SW 8.1 mph 20.7 mph N/A Rain Light Rain
2:35 PM 55.4 °F - 37.4 °F 51% 29.92 in 10.0 mi SSW 10.4 mph 17.3 mph N/A Rain Light Rain
2:55 PM 50.0 °F - 39.2 °F 66% 29.93 in 5.0 mi South 8.1 mph 18.4 mph N/A Rain Light Rain
3:15 PM 50.0 °F - 41.0 °F 71% 29.92 in 6.0 mi South 9.2 mph 18.4 mph N/A Rain Light Rain
3:35 PM 51.8 °F - 41.0 °F 67% 29.91 in 10.0 mi South 8.1 mph 18.4 mph N/A   Unknown
3:55 PM 53.6 °F - 39.2 °F 58% 29.91 in 10.0 mi SSW 9.2 mph 24.2 mph N/A   Unknown
4:15 PM 51.8 °F - 39.2 °F 62% 29.91 in 10.0 mi South 12.7 mph 17.3 mph N/A   Unknown
4:35 PM 50.0 °F - 39.2 °F 66% 29.91 in 10.0 mi SSW 11.5 mph 17.3 mph N/A Rain Light Rain
4:55 PM 50.0 °F - 41.0 °F 71% 29.92 in 9.0 mi SSW 5.8 mph - N/A Rain Light Rain
5:15 PM 50.0 °F - 41.0 °F 71% 29.92 in 10.0 mi SSW 5.8 mph - N/A Rain Light Rain
5:35 PM 50.0 °F - 41.0 °F 71% 29.91 in 10.0 mi SSW 5.8 mph - N/A Rain Light Rain
5:55 PM 48.2 °F - 44.6 °F 87% 29.91 in 8.0 mi SSW 4.6 mph - N/A Rain Light Rain
6:15 PM 48.2 °F - 44.6 °F 87% 29.91 in 5.0 mi South 4.6 mph - N/A Rain Light Rain
6:35 PM 48.2 °F - 44.6 °F 87% 29.91 in 8.0 mi SSW 3.5 mph - 0.01 in Rain Light Rain
6:55 PM 48.2 °F - 44.6 °F 87% 29.91 in 5.0 mi South 3.5 mph - 0.01 in Rain Light Rain
7:35 PM 48.2 °F - 42.8 °F 82% 29.90 in 10.0 mi South 8.1 mph - N/A   Unknown
9:15 PM 44.6 °F 43.1 °F 44.6 °F 100% 29.92 in 7.0 mi South 3.5 mph - N/A Rain Light Rain
9:35 PM 44.6 °F 42.2 °F 44.6 °F 100% 29.92 in 10.0 mi South 4.6 mph - N/A Rain Light Rain
9:55 PM 44.6 °F 41.4 °F 42.8 °F 93% 29.92 in 10.0 mi South 5.8 mph - N/A Rain Light Rain
10:15 PM 44.6 °F 42.2 °F 42.8 °F 93% 29.93 in 9.0 mi South 4.6 mph - N/A Rain Light Rain
10:35 PM 44.6 °F 42.2 °F 42.8 °F 93% 29.93 in 10.0 mi South 4.6 mph - 0.01 in Rain Light Rain
10:55 PM 44.6 °F 42.2 °F 42.8 °F 93% 29.93 in 10.0 mi South 4.6 mph - 0.01 in   Unknown
11:15 PM 44.6 °F 42.2 °F 42.8 °F 93% 29.93 in 10.0 mi South 4.6 mph - N/A   Unknown
11:35 PM 44.6 °F - 42.8 °F 93% 29.94 in 10.0 mi Calm Calm - N/A   Unknown
11:55 PM 44.6 °F - 42.8 °F 93% 29.94 in 10.0 mi Calm Calm - N/A   Unknown